Date String (YYYY-MM-DD hh:mm:ss) UTC,Instrument flags,Ambient pressure (hPa),Sample flow (lpm),Bypass flow (lpm),Sample temperature (°C),Ambient temperature (°C),ASC tube jacket temperature (°C),LED temperature (°C),Box temperature (°C),Sample RH (%),Span deviation,Mass concentration (μg/m³),Mass concentration (μg/m³),Mass concentration (μg/m³)
DateTimeUTC,F1_M11,P_M11,Q1_M11,Q2_M11,T1_M11,T2_M11,T3_M11,T4_M11,T5_M11,U1_M11,ZSPAN_M11,X0_M11,X2_M11,X1_M11
2022-10-09 04:00:00,,0833.7,5.01,0.00,30.0,28.3,00.0,38.8,31.7,16.5,0000.4,0014.25,0008.83,0008.18
2022-10-09 04:01:00,,0833.6,5.00,0.00,30.0,28.4,00.0,38.8,31.8,16.5,0000.4,0014.15,0008.79,0008.19
2022-10-09 04:02:00,,0833.7,5.00,0.00,30.0,28.4,00.0,38.8,31.8,16.5,0000.5,0014.11,0008.80,0008.21
2022-10-09 04:03:00,,0833.7,4.99,0.00,30.0,28.4,00.0,38.8,31.7,16.6,0000.9,0014.08,0008.81,0008.23
2022-10-09 04:04:00,,0833.7,5.01,0.00,29.9,28.4,00.0,38.8,31.7,16.5,0001.6,0014.13,0008.83,0008.25
2022-10-09 04:05:00,,0833.7,4.99,0.00,29.9,28.4,00.0,38.8,31.7,16.5,0001.9,0014.10,0008.81,0008.26
2022-10-09 04:06:00,,0833.7,4.99,0.00,29.9,28.4,00.0,38.8,31.7,16.5,0002.0,0013.97,0008.77,0008.25
2022-10-09 04:07:00,,0833.7,5.01,0.00,29.9,28.4,00.0,38.8,31.7,16.6,0002.2,0013.51,0008.74,0008.25
2022-10-09 04:08:00,,0833.7,5.00,0.00,29.9,28.3,00.0,38.8,31.7,16.6,0001.8,0012.88,0008.74,0008.25
2022-10-09 04:09:00,,0833.7,4.99,0.00,29.9,28.3,00.0,38.8,31.7,16.5,0001.3,0012.76,0008.76,0008.27
2022-10-09 04:10:00,,0833.7,5.01,0.00,29.9,28.3,00.0,38.7,31.7,16.5,0001.4,0012.66,0008.79,0008.31
2022-10-09 04:11:00,,0833.7,5.00,0.00,29.9,28.3,00.0,38.7,31.7,16.4,0001.6,0012.62,0008.83,0008.35
2022-10-09 04:12:00,,0833.7,4.99,0.00,29.9,28.3,00.0,38.7,31.7,16.4,0001.7,0012.65,0008.92,0008.38
2022-10-09 04:13:00,,0833.7,5.00,0.00,29.9,28.3,00.0,38.7,31.7,16.4,0001.5,0013.38,0008.99,0008.42
2022-10-09 04:14:00,,0833.7,5.00,0.00,29.9,28.3,00.0,38.7,31.7,16.4,0001.4,0013.67,0009.08,0008.46
2022-10-09 04:15:00,,0833.7,4.99,0.00,29.9,28.3,00.0,38.7,31.7,16.4,0001.1,0013.66,0009.09,0008.49
2022-10-09 04:16:00,,0833.7,5.02,0.00,29.9,28.3,00.0,38.7,31.6,16.4,0001.1,0013.77,0009.12,0008.52
2022-10-09 04:17:00,,0833.7,4.99,0.00,29.9,28.3,00.0,38.7,31.6,16.5,0001.2,0014.16,0009.17,0008.55
2022-10-09 04:18:00,,0833.7,5.01,0.00,29.9,28.3,00.0,38.7,31.7,16.4,0000.9,0014.22,0009.23,0008.59
2022-10-09 04:19:00,,0833.7,5.00,0.00,29.9,28.3,00.0,38.7,31.6,16.4,0000.9,0014.60,0009.27,0008.62
2022-10-09 04:20:00,,0833.7,5.00,0.00,29.9,28.2,00.0,38.7,31.6,16.4,0001.0,0015.02,0009.34,0008.67
2022-10-09 04:21:00,,0833.8,5.01,0.00,29.9,28.2,00.0,38.7,31.6,16.5,0000.8,0015.18,0009.38,0008.67
2022-10-09 04:22:00,,0833.7,4.98,0.00,29.8,28.2,00.0,38.7,31.6,16.5,0000.6,0015.01,0009.39,0008.67
2022-10-09 04:23:00,,0833.7,5.01,0.00,29.8,28.2,00.0,38.7,31.6,16.4,0000.7,0015.05,0009.32,0008.65
2022-10-09 04:24:00,,0833.7,5.00,0.00,29.8,28.2,00.0,38.7,31.6,16.4,0001.0,0015.21,0009.28,0008.62
2022-10-09 04:25:00,,0833.7,4.99,0.00,29.8,28.2,00.0,38.7,31.6,16.4,0001.0,0015.14,0009.24,0008.61
2022-10-09 04:26:00,,0833.7,5.01,0.00,29.8,28.2,00.0,38.7,31.6,16.3,0000.9,0015.35,0009.23,0008.59
2022-10-09 04:27:00,,0833.7,5.00,0.00,29.8,28.2,00.0,38.7,31.6,16.4,0000.9,0015.55,0009.23,0008.56
2022-10-09 04:28:00,,0833.7,5.01,0.00,29.8,28.2,00.0,38.7,31.6,16.4,0000.9,0015.26,0009.21,0008.55
2022-10-09 04:29:00,,0833.7,5.00,0.00,29.8,28.2,00.0,38.7,31.6,16.4,0000.9,0015.19,0009.18,0008.53
2022-10-09 04:30:00,,0833.7,4.99,0.00,29.8,28.2,00.0,38.6,31.6,16.4,0001.1,0014.80,0009.17,0008.52
2022-10-09 04:31:00,,0833.7,5.01,0.00,29.8,28.2,00.0,38.6,31.6,16.3,0001.2,0014.57,0009.13,0008.49
2022-10-09 04:32:00,,0833.7,5.01,0.00,29.8,28.2,00.0,38.6,31.6,16.4,0001.5,0014.53,0009.09,0008.45
2022-10-09 04:33:00,,0833.7,4.99,0.00,29.8,28.2,00.0,38.6,31.5,16.3,0001.5,0014.51,0009.06,0008.44
2022-10-09 04:34:00,,0833.7,5.00,0.00,29.8,28.1,00.0,38.6,31.5,16.3,0001.6,0014.64,0009.07,0008.43
2022-10-09 04:35:00,,0833.8,5.01,0.00,29.8,28.1,00.0,38.6,31.5,16.2,0001.3,0014.19,0009.03,0008.41
2022-10-09 04:36:00,,0833.7,4.99,0.00,29.8,28.1,00.0,38.6,31.5,16.3,0001.2,0013.79,0009.00,0008.40
2022-10-09 04:37:00,,0833.8,5.00,0.00,29.7,28.1,00.0,38.6,31.5,16.5,0001.2,0013.78,0008.97,0008.37
2022-10-09 04:38:00,,0833.7,5.00,0.00,29.7,28.1,00.0,38.6,31.5,16.3,0001.0,0013.69,0008.95,0008.35
2022-10-09 04:39:00,,0833.7,4.99,0.00,29.7,28.0,00.0,38.6,31.5,16.3,0000.7,0013.64,0008.93,0008.34
2022-10-09 04:40:00,,0833.7,4.99,0.00,29.7,28.1,00.0,38.6,31.5,16.3,0000.6,0013.69,0008.94,0008.35
2022-10-09 04:41:00,,0833.7,5.00,0.00,29.7,28.1,00.0,38.6,31.5,16.2,0000.0,0014.47,0008.90,0008.30
2022-10-09 04:42:00,,0833.7,5.00,0.00,29.7,28.0,00.0,38.6,31.4,16.1,-000.1,0014.43,0008.87,0008.25
2022-10-09 04:43:00,,0833.7,5.01,0.00,29.7,28.0,00.0,38.6,31.4,16.1,-000.3,0014.59,0008.86,0008.22
2022-10-09 04:44:00,,0833.7,4.99,0.00,29.7,28.0,00.0,38.5,31.4,16.2,-000.2,0014.48,0008.83,0008.19
2022-10-09 04:45:00,,0833.7,5.01,0.00,29.7,28.0,00.0,38.5,31.4,16.3,-000.1,0014.46,0008.78,0008.15
2022-10-09 04:46:00,,0833.7,4.99,0.00,29.7,28.0,00.0,38.5,31.4,16.4,0000.2,0014.17,0008.81,0008.14
2022-10-09 04:47:00,,0833.7,5.01,0.00,29.7,28.0,00.0,38.5,31.4,16.3,0000.1,0014.20,0008.79,0008.11
2022-10-09 04:48:00,,0833.7,4.99,0.00,29.7,28.0,00.0,38.5,31.4,16.4,0000.1,0014.16,0008.80,0008.09
2022-10-09 04:49:00,,0833.7,5.01,0.00,29.6,28.0,00.0,38.5,31.4,16.4,0000.1,0014.40,0008.79,0008.08
2022-10-09 04:50:00,,0833.7,5.01,0.00,29.6,28.0,00.0,38.5,31.4,16.6,0000.3,0014.46,0008.76,0008.08
2022-10-09 04:51:00,,0833.7,4.99,0.00,29.6,27.9,00.0,38.5,31.4,16.4,0000.4,0014.78,0008.73,0008.07
2022-10-09 04:52:00,,0833.7,5.01,0.00,29.6,27.9,00.0,38.5,31.4,16.5,0000.7,0013.95,0008.75,0008.08
2022-10-09 04:53:00,,0833.7,4.99,0.00,29.6,28.0,00.0,38.5,31.4,16.5,0001.1,0013.93,0008.76,0008.09
2022-10-09 04:54:00,,0833.6,5.01,0.00,29.6,27.9,00.0,38.5,31.3,16.6,0001.4,0013.60,0008.75,0008.12
2022-10-09 04:55:00,,0833.6,4.99,0.00,29.6,27.9,00.0,38.5,31.3,16.7,0001.4,0014.07,0008.81,0008.17
2022-10-09 04:56:00,,0833.7,5.00,0.00,29.6,27.9,00.0,38.5,31.3,16.8,0001.4,0014.73,0008.88,0008.21
2022-10-09 04:57:00,,0833.6,5.01,0.00,29.6,27.9,00.0,38.4,31.3,16.8,0001.1,0014.63,0008.94,0008.25
2022-10-09 04:58:00,,0833.6,4.99,0.00,29.6,27.9,00.0,38.4,31.3,16.7,0001.1,0014.75,0009.01,0008.30
2022-10-09 04:59:00,,0833.7,5.00,0.00,29.6,27.8,00.0,38.4,31.3,16.7,0001.1,0014.79,0009.03,0008.34
